Home > Time Zones > World Clock > Weather > Fiji > Nadi > Past weeks

Flag for Fiji Weather past 2 weeks in Nadi, Fiji

Now
75 °F

Sprinkles. Partly sunny.


Feels Like: 74 °F
Forecast: 75 / 82 °F
Wind: No wind

Location: Nandi

Current Time: Jun 4, 2015 at 12:00:35 PM

Latest Report: Jun 4, 2015 at 11:00 AM


Visibility: N/A

Pressure: 29.98 "Hg

Humidity: 94%

Dew point: 73 °F

Location of NadiLocation

Historic Weather in Nadi — Graph

°F

Nadi temperature yesterday

Maximum temperature yesterday: 88 °F (at 1:00 PM)
Minimum temperature yesterday: 72 °F (at 4:00 AM)
Average temperature yesterday: 79 °F

Past Weeks' High & Low Weather Summary

 TemperatureHumidityPressure
High88 °F (May 25, 2:00 PM)100% (May 25, 6:00 AM)30.07 "Hg (May 25, 6:00 AM)
Low63 °F (May 23, 5:00 AM)48% (May 22, 1:00 PM)29.83 "Hg (May 30, 3:00 PM)
Average76 °F77%29.96 "Hg
* Reported May 20 11:00 AM — Jun 4 11:00 AM, Nadi, Weather by CustomWeather, © 2015

Note: Actual official high and low records may vary slightly from our data, if they occured in-between our weather recording intervals... More about our weather records

Advertising

Nadi weather history for previous 24 hours

 ConditionsComfort  
Time TempWeatherWind HumidityBarometerVisibility
11:00 AM
Thu, Jun 4
75 °FSprinkles. Partly sunny.No wind94%29.98 "HgN/A
10:00 AM75 °FBroken clouds.No wind94%29.98 "HgN/A
9:00 AM75 °FSprinkles. Partly sunny.No wind89%29.98 "HgN/A
8:00 AM75 °FBroken clouds.No wind89%29.95 "HgN/A
7:00 AM73 °FBroken clouds.6 mph89%29.95 "HgN/A
6:00 AM73 °FPartly cloudy.No wind89%29.92 "HgN/A
5:00 AM73 °FPartly cloudy.6 mph89%29.89 "HgN/A
4:00 AM73 °FPartly cloudy.No wind89%29.92 "HgN/A
3:00 AM73 °FPassing clouds.No wind89%29.92 "HgN/A
2:00 AM73 °FPassing clouds.No wind94%29.92 "HgN/A
1:00 AM75 °FPassing clouds.No wind83%29.92 "HgN/A
12:00 AM75 °FPartly cloudy.No wind89%29.92 "HgN/A
11:00 PM
Wed, Jun 3
75 °FPartly cloudy.No wind94%29.95 "HgN/A
10:00 PM75 °FPassing clouds.No wind94%29.92 "HgN/A
9:00 PM77 °FPassing clouds.3 mph89%29.92 "HgN/A
8:00 PM79 °FPassing clouds.6 mph84%29.92 "HgN/A
7:00 PM79 °FPartly cloudy.5 mph84%29.92 "HgN/A
6:00 PM82 °FPartly cloudy.No wind70%29.89 "HgN/A
5:00 PM84 °FBroken clouds.7 mph62%29.89 "HgN/A
4:00 PM84 °FBroken clouds.7 mph62%29.86 "HgN/A
3:00 PM86 °FBroken clouds.9 mph62%29.86 "HgN/A
2:00 PM88 °FBroken clouds.12 mph55%29.86 "HgN/A
1:00 PM88 °FScattered clouds.9 mph55%29.89 "HgN/A
12:00 PM86 °FScattered clouds.5 mph59%29.92 "HgN/A
Weather by CustomWeather, © 2015

See weather overviewHow to use our weather pages